Вернуться в каталог

SENTINEL 2B

АктивенНаукаSSO
NORAD 42063·PAYLOAD·🇪🇺 EU

Запущен Mar 7, 2017 с Guiana Space Centre

Loading…

Ближайшие Пролёты (ближайшие 24 часа)

TLE

СвежийSource: Space-Track

Эпоха: Sep 14, 2026, 15:33 UTC

1 42063U 17013A   26257.64804561  .00000152  00000-0  74626-4 0  9990
2 42063  98.5721 331.1334 0001206  85.3188 274.8133 14.30814534497437

Отслеживайте SENTINEL 2B в реальном времени с AllMySat

Download on the App Store